User: anonymous   Login
Location: Oshawa
(43.9000°N, 78.8670°W)
Time: 20:16:23
(UTC-05:00)
Language:

Iridium 54 - Orbit

View from above orbital plane
View from above orbital plane
View from above satellite
View from above satellite

Ground track
Ground track

The orbit data is extracted from the following two-line orbital elements,

1 25171U 98010C   14331.49208635  .00000670  00000-0  23217-3 0   120
2 25171 086.3974 020.2451 0002192 108.0661 252.0774 14.34216474878247
Epoch (UTC): 27 November 2014 11:48:36
Eccentricity: 0.0002192
inclination: 86.3974°
perigee height: 776 km
apogee height: 779 km
right ascension of ascending node: 20.2451°
argument of perigee: 108.0661°
revolutions per day: 14.34216474
mean anomaly at epoch: 252.0774°
orbit number at epoch: 87824

The dashed part of the orbit path shows where the satellite is in the earth's shadow,  

DLR